Location: Gull Harbor
(47.1000°N, 122.9000°W)
Time: 13:29:54
(UTC-07:00)

X-37B - Visible Passes

Search period start: 24 July 2021 00:00
Search period end: 03 August 2021 00:00
Orbit: 383 x 392 km, 45.0° (Epoch: 01 July)

Date Brightness Start Highest point End Pass type
(mag) Time Alt. Az. Time Alt. Az. Time Alt. Az.
31 Jul 2.8 05:09:25 10° SSW 05:11:34 17° SSE 05:13:43 10° ESE visible
01 Aug 3.2 04:12:48 10° SSE 04:13:28 10° SE 04:14:07 10° SE visible
02 Aug 2.1 04:49:05 13° SSW 04:51:15 25° SSE 04:53:58 10° E visible
